Location: Sweet Grass
(48.9965°N, 111.9649°W)
Time: 01:16:05
(UTC+00:00)

BlueWalker 3 - Visible Passes

Search period start: 07 December 2022 00:00
Search period end: 17 December 2022 00:00
Orbit: 501 x 518 km, 53.2° (Epoch: 06 December)

Date Brightness Start Highest point End Pass type
(mag) Time Alt. Az. Time Alt. Az. Time Alt. Az.
07 Dec 2.4 00:18:22 10° WNW 00:22:10 46° N 00:25:51 11° E visible
07 Dec 2.1 01:57:09 10° WNW 02:00:42 70° W 02:00:42 70° W visible
08 Dec 1.9 01:38:45 10° WNW 01:42:40 78° SSW 01:43:20 58° SE visible
09 Dec 2.0 01:20:21 10° WNW 01:24:15 75° SSW 01:26:07 29° SE visible
09 Dec 5.0 02:59:53 10° W 03:00:59 14° WSW 03:00:59 14° WSW visible
10 Dec 2.1 01:01:56 10° WNW 01:05:51 71° SSW 01:09:06 14° SE visible
10 Dec 4.6 02:41:34 10° W 02:43:56 16° SW 02:43:58 16° SW visible
11 Dec 2.3 00:43:31 10° WNW 00:47:25 68° SSW 00:51:17 10° SE visible
11 Dec 4.7 02:23:16 10° W 02:25:29 15° SW 02:27:15 11° SSW visible
12 Dec 2.4 00:25:06 10° WNW 00:28:59 65° SSW 00:32:51 10° SE visible
12 Dec 4.9 02:04:58 10° W 02:07:02 14° SW 02:09:05 10° SSW visible
13 Dec 2.5 00:06:40 10° WNW 00:10:33 62° SSW 00:14:23 10° SE visible
13 Dec 5.0 01:46:42 10° WSW 01:48:34 13° SW 01:50:25 10° SSW visible
14 Dec 5.2 01:28:27 10° WSW 01:30:06 12° SW 01:31:44 10° SSW visible
15 Dec 5.3 01:10:14 10° WSW 01:11:37 12° SW 01:12:59 10° SSW visible
16 Dec 5.6 00:52:07 10° WSW 00:53:08 11° SW 00:54:09 10° SW visible
